Data supplied by UK-AIR on 5/4/2008
All Data GMT hour ending 
Status: R =Ratified P=Provisional,P*=As supplied
,,Bristol Centre,,,,,,,,,,,,,,,,,,,,,,,
Date,time,"Carbon monoxide",status,unit,"PM10 particulate matter (Hourly measured)",status,unit,"Nitric oxide",status,unit,"Nitrogen dioxide",status,unit,"Nitrogen oxides as nitrogen dioxide",status,unit,"Ozone",status,unit,"Sulphur dioxide",status,unit
 
01-01-2002,01:00,,,,73,R,ugm-3 (GRAV EQ),,,,,,,,,,,,,,,
01-01-2002,02:00,1.4,R,mgm-3,99,R,ugm-3 (GRAV EQ),211,R,ugm-3,76,R,ugm-3,399,R,ugm-3,6,R,ugm-3,11,R,ugm-3
01-01-2002,03:00,1.3,R,mgm-3,85,R,ugm-3 (GRAV EQ),283,R,ugm-3,80,R,ugm-3,512,R,ugm-3,6,R,ugm-3,11,R,ugm-3
01-01-2002,04:00,1.3,R,mgm-3,82,R,ugm-3 (GRAV EQ),270,R,ugm-3,76,R,ugm-3,489,R,ugm-3,6,R,ugm-3,11,R,ugm-3
01-01-2002,05:00,1.0,R,mgm-3,75,R,ugm-3 (GRAV EQ),231,R,ugm-3,71,R,ugm-3,424,R,ugm-3,6,R,ugm-3,8,R,ugm-3
01-01-2002,06:00,0.9,R,mgm-3,60,R,ugm-3 (GRAV EQ),206,R,ugm-3,63,R,ugm-3,378,R,ugm-3,4,R,ugm-3,8,R,ugm-3
01-01-2002,07:00,0.8,R,mgm-3,62,R,ugm-3 (GRAV EQ),184,R,ugm-3,73,R,ugm-3,353,R,ugm-3,4,R,ugm-3,8,R,ugm-3
01-01-2002,08:00,0.9,R,mgm-3,59,R,ugm-3 (GRAV EQ),183,R,ugm-3,61,R,ugm-3,340,R,ugm-3,4,R,ugm-3,8,R,ugm-3
01-01-2002,09:00,1.3,R,mgm-3,69,R,ugm-3 (GRAV EQ),281,R,ugm-3,74,R,ugm-3,504,R,ugm-3,4,R,ugm-3,8,R,ugm-3
01-01-2002,10:00,0.7,R,mgm-3,51,R,ugm-3 (GRAV EQ),211,R,ugm-3,71,R,ugm-3,393,R,ugm-3,2,R,ugm-3,8,R,ugm-3
01-01-2002,11:00,1.0,R,mgm-3,59,R,ugm-3 (GRAV EQ),251,R,ugm-3,82,R,ugm-3,466,R,ugm-3,4,R,ugm-3,11,R,ugm-3
01-01-2002,12:00,0.9,R,mgm-3,56,R,ugm-3 (GRAV EQ),175,R,ugm-3,76,R,ugm-3,344,R,ugm-3,4,R,ugm-3,11,R,ugm-3
01-01-2002,13:00,1.3,R,mgm-3,60,R,ugm-3 (GRAV EQ),188,R,ugm-3,84,R,ugm-3,371,R,ugm-3,6,R,ugm-3,13,R,ugm-3
01-01-2002,14:00,1.3,R,mgm-3,44,R,ugm-3 (GRAV EQ),203,R,ugm-3,78,R,ugm-3,388,R,ugm-3,6,R,ugm-3,13,R,ugm-3
01-01-2002,15:00,1.4,R,mgm-3,34,R,ugm-3 (GRAV EQ),186,R,ugm-3,99,R,ugm-3,384,R,ugm-3,6,R,ugm-3,13,R,ugm-3
01-01-2002,16:00,1.7,R,mgm-3,39,R,ugm-3 (GRAV EQ),288,R,ugm-3,94,R,ugm-3,533,R,ugm-3,4,R,ugm-3,11,R,ugm-3
01-01-2002,17:00,2.0,R,mgm-3,35,R,ugm-3 (GRAV EQ),226,R,ugm-3,90,R,ugm-3,435,R,ugm-3,4,R,ugm-3,11,R,ugm-3
01-01-2002,18:00,2.3,R,mgm-3,42,R,ugm-3 (GRAV EQ),254,R,ugm-3,84,R,ugm-3,472,R,ugm-3,4,R,ugm-3,11,R,ugm-3
01-01-2002,19:00,1.6,R,mgm-3,43,R,ugm-3 (GRAV EQ),224,R,ugm-3,86,R,ugm-3,428,R,ugm-3,4,R,ugm-3,11,R,ugm-3
01-01-2002,20:00,2.7,R,mgm-3,85,R,ugm-3 (GRAV EQ),396,R,ugm-3,101,R,ugm-3,707,R,ugm-3,8,R,ugm-3,13,R,ugm-3
01-01-2002,21:00,2.8,R,mgm-3,66,R,ugm-3 (GRAV EQ),263,R,ugm-3,99,R,ugm-3,500,R,ugm-3,6,R,ugm-3,13,R,ugm-3
01-01-2002,22:00,1.3,R,mgm-3,35,R,ugm-3 (GRAV EQ),134,R,ugm-3,82,R,ugm-3,287,R,ugm-3,4,R,ugm-3,11,R,ugm-3
01-01-2002,23:00,0.7,R,mgm-3,23,R,ugm-3 (GRAV EQ),108,R,ugm-3,82,R,ugm-3,246,R,ugm-3,4,R,ugm-3,8,R,ugm-3
01-01-2002,24:00,0.3,R,mgm-3,23,R,ugm-3 (GRAV EQ),88,R,ugm-3,84,R,ugm-3,218,R,ugm-3,4,R,ugm-3,8,R,ugm-3
02-01-2002,01:00,0.7,R,mgm-3,26,R,ugm-3 (GRAV EQ),93,R,ugm-3,76,R,ugm-3,218,R,ugm-3,4,R,ugm-3,5,R,ugm-3
02-01-2002,02:00,0.7,R,mgm-3,23,R,ugm-3 (GRAV EQ),71,R,ugm-3,67,R,ugm-3,176,R,ugm-3,4,R,ugm-3,8,R,ugm-3
02-01-2002,03:00,0.7,R,mgm-3,25,R,ugm-3 (GRAV EQ),69,R,ugm-3,65,R,ugm-3,170,R,ugm-3,4,R,ugm-3,8,R,ugm-3
02-01-2002,04:00,0.6,R,mgm-3,20,R,ugm-3 (GRAV EQ),33,R,ugm-3,59,R,ugm-3,109,R,ugm-3,4,R,ugm-3,5,R,ugm-3
02-01-2002,05:00,0.5,R,mgm-3,20,R,ugm-3 (GRAV EQ),63,R,ugm-3,67,R,ugm-3,162,R,ugm-3,2,R,ugm-3,8,R,ugm-3
02-01-2002,06:00,0.2,R,mgm-3,21,R,ugm-3 (GRAV EQ),101,R,ugm-3,67,R,ugm-3,222,R,ugm-3,6,R,ugm-3,8,R,ugm-3
02-01-2002,07:00,0.2,R,mgm-3,17,R,ugm-3 (GRAV EQ),64,R,ugm-3,65,R,ugm-3,162,R,ugm-3,8,R,ugm-3,8,R,ugm-3
02-01-2002,08:00,0.3,R,mgm-3,21,R,ugm-3 (GRAV EQ),94,R,ugm-3,76,R,ugm-3,220,R,ugm-3,8,R,ugm-3,8,R,ugm-3
02-01-2002,09:00,0.7,R,mgm-3,29,R,ugm-3 (GRAV EQ),195,R,ugm-3,97,R,ugm-3,395,R,ugm-3,4,R,ugm-3,8,R,ugm-3
02-01-2002,10:00,0.8,R,mgm-3,34,R,ugm-3 (GRAV EQ),254,R,ugm-3,105,R,ugm-3,493,R,ugm-3,4,R,ugm-3,11,R,ugm-3
02-01-2002,11:00,0.9,R,mgm-3,30,R,ugm-3 (GRAV EQ),211,R,ugm-3,84,R,ugm-3,407,R,ugm-3,4,R,ugm-3,11,R,ugm-3
02-01-2002,12:00,0.9,R,mgm-3,29,R,ugm-3 (GRAV EQ),163,R,ugm-3,67,R,ugm-3,315,R,ugm-3,8,R,ugm-3,11,R,ugm-3
02-01-2002,13:00,1.2,R,mgm-3,42,R,ugm-3 (GRAV EQ),220,R,ugm-3,86,R,ugm-3,422,R,ugm-3,6,R,ugm-3,11,R,ugm-3
02-01-2002,14:00,1.2,R,mgm-3,36,R,ugm-3 (GRAV EQ),169,R,ugm-3,74,R,ugm-3,332,R,ugm-3,10,R,ugm-3,11,R,ugm-3
02-01-2002,15:00,1.3,R,mgm-3,34,R,ugm-3 (GRAV EQ),173,R,ugm-3,88,R,ugm-3,351,R,ugm-3,8,R,ugm-3,11,R,ugm-3
02-01-2002,16:00,1.2,R,mgm-3,39,R,ugm-3 (GRAV EQ),181,R,ugm-3,86,R,ugm-3,363,R,ugm-3,6,R,ugm-3,8,R,ugm-3
02-01-2002,17:00,1.6,R,mgm-3,35,R,ugm-3 (GRAV EQ),186,R,ugm-3,90,R,ugm-3,374,R,ugm-3,4,R,ugm-3,8,R,ugm-3
02-01-2002,18:00,2.0,R,mgm-3,42,R,ugm-3 (GRAV EQ),193,R,ugm-3,86,R,ugm-3,380,R,ugm-3,6,R,ugm-3,5,R,ugm-3
02-01-2002,19:00,1.2,R,mgm-3,31,R,ugm-3 (GRAV EQ),106,R,ugm-3,65,R,ugm-3,227,R,ugm-3,10,R,ugm-3,5,R,ugm-3
02-01-2002,20:00,0.6,R,mgm-3,26,R,ugm-3 (GRAV EQ),50,R,ugm-3,63,R,ugm-3,139,R,ugm-3,14,R,ugm-3,3,R,ugm-3
02-01-2002,21:00,0.6,R,mgm-3,26,R,ugm-3 (GRAV EQ),45,R,ugm-3,57,R,ugm-3,126,R,ugm-3,18,R,ugm-3,3,R,ugm-3
02-01-2002,22:00,0.6,R,mgm-3,27,R,ugm-3 (GRAV EQ),44,R,ugm-3,52,R,ugm-3,118,R,ugm-3,16,R,ugm-3,5,R,ugm-3
02-01-2002,23:00,0.5,R,mgm-3,31,R,ugm-3 (GRAV EQ),40,R,ugm-3,50,R,ugm-3,111,R,ugm-3,16,R,ugm-3,3,R,ugm-3
02-01-2002,24:00,0.6,R,mgm-3,30,R,ugm-3 (GRAV EQ),38,R,ugm-3,53,R,ugm-3,111,R,ugm-3,16,R,ugm-3,3,R,ugm-3
03-01-2002,01:00,0.3,R,mgm-3,27,R,ugm-3 (GRAV EQ),20,R,ugm-3,42,R,ugm-3,73,R,ugm-3,18,R,ugm-3,3,R,ugm-3
03-01-2002,02:00,0.3,R,mgm-3,27,R,ugm-3 (GRAV EQ),29,R,ugm-3,50,R,ugm-3,94,R,ugm-3,16,R,ugm-3,5,R,ugm-3
03-01-2002,03:00,0.3,R,mgm-3,25,R,ugm-3 (GRAV EQ),26,R,ugm-3,46,R,ugm-3,86,R,ugm-3,16,R,ugm-3,3,R,ugm-3
03-01-2002,04:00,0.2,R,mgm-3,25,R,ugm-3 (GRAV EQ),20,R,ugm-3,42,R,ugm-3,73,R,ugm-3,18,R,ugm-3,3,R,ugm-3
03-01-2002,05:00,0.2,R,mgm-3,25,R,ugm-3 (GRAV EQ),23,R,ugm-3,50,R,ugm-3,84,R,ugm-3,14,R,ugm-3,3,R,ugm-3
03-01-2002,06:00,0.2,R,mgm-3,22,R,ugm-3 (GRAV EQ),38,R,ugm-3,59,R,ugm-3,117,R,ugm-3,14,R,ugm-3,5,R,ugm-3
03-01-2002,07:00,0.2,R,mgm-3,26,R,ugm-3 (GRAV EQ),51,R,ugm-3,53,R,ugm-3,132,R,ugm-3,14,R,ugm-3,5,R,ugm-3
03-01-2002,08:00,0.3,R,mgm-3,23,R,ugm-3 (GRAV EQ),109,R,ugm-3,78,R,ugm-3,244,R,ugm-3,10,R,ugm-3,5,R,ugm-3
03-01-2002,09:00,0.6,R,mgm-3,29,R,ugm-3 (GRAV EQ),135,R,ugm-3,92,R,ugm-3,298,R,ugm-3,6,R,ugm-3,8,R,ugm-3
03-01-2002,10:00,0.6,R,mgm-3,39,R,ugm-3 (GRAV EQ),110,R,ugm-3,74,R,ugm-3,243,R,ugm-3,8,R,ugm-3,8,R,ugm-3
03-01-2002,11:00,0.5,R,mgm-3,48,R,ugm-3 (GRAV EQ),121,R,ugm-3,84,R,ugm-3,269,R,ugm-3,10,R,ugm-3,5,R,ugm-3
03-01-2002,12:00,,,,56,R,ugm-3 (GRAV EQ),,,,,,,,,,,,,,,
03-01-2002,13:00,1.0,R,mgm-3,53,R,ugm-3 (GRAV EQ),150,R,ugm-3,88,R,ugm-3,317,R,ugm-3,10,R,ugm-3,8,R,ugm-3
03-01-2002,14:00,0.8,R,mgm-3,46,R,ugm-3 (GRAV EQ),103,R,ugm-3,74,R,ugm-3,231,R,ugm-3,8,R,ugm-3,8,R,ugm-3
03-01-2002,15:00,0.8,R,mgm-3,51,R,ugm-3 (GRAV EQ),129,R,ugm-3,78,R,ugm-3,275,R,ugm-3,6,R,ugm-3,5,R,ugm-3
03-01-2002,16:00,0.8,R,mgm-3,40,R,ugm-3 (GRAV EQ),108,R,ugm-3,71,R,ugm-3,235,R,ugm-3,2,R,ugm-3,5,R,ugm-3
03-01-2002,17:00,0.9,R,mgm-3,36,R,ugm-3 (GRAV EQ),99,R,ugm-3,73,R,ugm-3,223,R,ugm-3,2,R,ugm-3,8,R,ugm-3
03-01-2002,18:00,1.5,R,mgm-3,35,R,ugm-3 (GRAV EQ),109,R,ugm-3,80,R,ugm-3,246,R,ugm-3,4,R,ugm-3,8,R,ugm-3
03-01-2002,19:00,1.3,R,mgm-3,35,R,ugm-3 (GRAV EQ),176,R,ugm-3,65,R,ugm-3,334,R,ugm-3,4,R,ugm-3,5,R,ugm-3
03-01-2002,20:00,0.8,R,mgm-3,27,R,ugm-3 (GRAV EQ),116,R,ugm-3,61,R,ugm-3,239,R,ugm-3,6,R,ugm-3,5,R,ugm-3
03-01-2002,21:00,0.7,R,mgm-3,27,R,ugm-3 (GRAV EQ),80,R,ugm-3,73,R,ugm-3,195,R,ugm-3,4,R,ugm-3,5,R,ugm-3
03-01-2002,22:00,0.6,R,mgm-3,26,R,ugm-3 (GRAV EQ),83,R,ugm-3,53,R,ugm-3,180,R,ugm-3,6,R,ugm-3,5,R,ugm-3
03-01-2002,23:00,0.6,R,mgm-3,27,R,ugm-3 (GRAV EQ),69,R,ugm-3,61,R,ugm-3,166,R,ugm-3,6,R,ugm-3,8,R,ugm-3
03-01-2002,24:00,0.5,R,mgm-3,23,R,ugm-3 (GRAV EQ),16,R,ugm-3,44,R,ugm-3,69,R,ugm-3,14,R,ugm-3,5,R,ugm-3
04-01-2002,01:00,0.6,R,mgm-3,26,R,ugm-3 (GRAV EQ),13,R,ugm-3,50,R,ugm-3,69,R,ugm-3,8,R,ugm-3,5,R,ugm-3
04-01-2002,02:00,0.3,R,mgm-3,27,R,ugm-3 (GRAV EQ),11,R,ugm-3,57,R,ugm-3,74,R,ugm-3,4,R,ugm-3,5,R,ugm-3
04-01-2002,03:00,0.3,R,mgm-3,26,R,ugm-3 (GRAV EQ),14,R,ugm-3,57,R,ugm-3,78,R,ugm-3,2,R,ugm-3,5,R,ugm-3
04-01-2002,04:00,0.3,R,mgm-3,27,R,ugm-3 (GRAV EQ),18,R,ugm-3,57,R,ugm-3,84,R,ugm-3,2,R,ugm-3,8,R,ugm-3
04-01-2002,05:00,0.3,R,mgm-3,27,R,ugm-3 (GRAV EQ),20,R,ugm-3,57,R,ugm-3,88,R,ugm-3,2,R,ugm-3,8,R,ugm-3
04-01-2002,06:00,0.3,R,mgm-3,27,R,ugm-3 (GRAV EQ),39,R,ugm-3,57,R,ugm-3,117,R,ugm-3,2,R,ugm-3,8,R,ugm-3
04-01-2002,07:00,0.5,R,mgm-3,29,R,ugm-3 (GRAV EQ),69,R,ugm-3,65,R,ugm-3,170,R,ugm-3,2,R,ugm-3,5,R,ugm-3
04-01-2002,08:00,0.7,R,mgm-3,33,R,ugm-3 (GRAV EQ),98,R,ugm-3,74,R,ugm-3,223,R,ugm-3,2,R,ugm-3,11,R,ugm-3
04-01-2002,09:00,0.9,R,mgm-3,39,R,ugm-3 (GRAV EQ),115,R,ugm-3,73,R,ugm-3,248,R,ugm-3,2,R,ugm-3,13,R,ugm-3
04-01-2002,10:00,1.2,R,mgm-3,49,R,ugm-3 (GRAV EQ),190,R,ugm-3,80,R,ugm-3,371,R,ugm-3,2,R,ugm-3,11,R,ugm-3
04-01-2002,11:00,1.0,R,mgm-3,46,R,ugm-3 (GRAV EQ),236,R,ugm-3,71,R,ugm-3,432,R,ugm-3,4,R,ugm-3,11,R,ugm-3
04-01-2002,12:00,1.2,R,mgm-3,47,R,ugm-3 (GRAV EQ),284,R,ugm-3,63,R,ugm-3,497,R,ugm-3,4,R,ugm-3,13,R,ugm-3
04-01-2002,13:00,1.4,R,mgm-3,47,R,ugm-3 (GRAV EQ),268,R,ugm-3,78,R,ugm-3,487,R,ugm-3,4,R,ugm-3,13,R,ugm-3
04-01-2002,14:00,1.7,R,mgm-3,53,R,ugm-3 (GRAV EQ),321,R,ugm-3,84,R,ugm-3,575,R,ugm-3,4,R,ugm-3,16,R,ugm-3
04-01-2002,15:00,1.5,R,mgm-3,55,R,ugm-3 (GRAV EQ),303,R,ugm-3,97,R,ugm-3,560,R,ugm-3,4,R,ugm-3,13,R,ugm-3
04-01-2002,16:00,1.7,R,mgm-3,56,R,ugm-3 (GRAV EQ),279,R,ugm-3,86,R,ugm-3,512,R,ugm-3,4,R,ugm-3,13,R,ugm-3
04-01-2002,17:00,2.6,R,mgm-3,60,R,ugm-3 (GRAV EQ),370,R,ugm-3,90,R,ugm-3,655,R,ugm-3,6,R,ugm-3,13,R,ugm-3
04-01-2002,18:00,3.2,R,mgm-3,72,R,ugm-3 (GRAV EQ),398,R,ugm-3,96,R,ugm-3,703,R,ugm-3,6,R,ugm-3,13,R,ugm-3
04-01-2002,19:00,1.5,R,mgm-3,65,R,ugm-3 (GRAV EQ),244,R,ugm-3,78,R,ugm-3,451,R,ugm-3,2,R,ugm-3,13,R,ugm-3
04-01-2002,20:00,0.9,R,mgm-3,53,R,ugm-3 (GRAV EQ),178,R,ugm-3,80,R,ugm-3,351,R,ugm-3,2,R,ugm-3,11,R,ugm-3
04-01-2002,21:00,0.8,R,mgm-3,35,R,ugm-3 (GRAV EQ),169,R,ugm-3,74,R,ugm-3,332,R,ugm-3,2,R,ugm-3,8,R,ugm-3
04-01-2002,22:00,0.8,R,mgm-3,44,R,ugm-3 (GRAV EQ),189,R,ugm-3,71,R,ugm-3,359,R,ugm-3,2,R,ugm-3,8,R,ugm-3
04-01-2002,23:00,0.7,R,mgm-3,39,R,ugm-3 (GRAV EQ),146,R,ugm-3,65,R,ugm-3,288,R,ugm-3,2,R,ugm-3,5,R,ugm-3
04-01-2002,24:00,0.7,R,mgm-3,42,R,ugm-3 (GRAV EQ),136,R,ugm-3,59,R,ugm-3,267,R,ugm-3,2,R,ugm-3,5,R,ugm-3
05-01-2002,01:00,0.5,R,mgm-3,39,R,ugm-3 (GRAV EQ),71,R,ugm-3,55,R,ugm-3,164,R,ugm-3,2,R,ugm-3,3,R,ugm-3
05-01-2002,02:00,0.5,R,mgm-3,46,R,ugm-3 (GRAV EQ),51,R,ugm-3,52,R,ugm-3,130,R,ugm-3,0,R,ugm-3,3,R,ugm-3
05-01-2002,03:00,0.8,R,mgm-3,42,R,ugm-3 (GRAV EQ),43,R,ugm-3,44,R,ugm-3,109,R,ugm-3,2,R,ugm-3,3,R,ugm-3
05-01-2002,04:00,0.5,R,mgm-3,36,R,ugm-3 (GRAV EQ),44,R,ugm-3,38,R,ugm-3,105,R,ugm-3,2,R,ugm-3,3,R,ugm-3
05-01-2002,05:00,0.3,R,mgm-3,31,R,ugm-3 (GRAV EQ),33,R,ugm-3,40,R,ugm-3,90,R,ugm-3,2,R,ugm-3,3,R,ugm-3
05-01-2002,06:00,0.3,R,mgm-3,33,R,ugm-3 (GRAV EQ),49,R,ugm-3,46,R,ugm-3,120,R,ugm-3,2,R,ugm-3,3,R,ugm-3
05-01-2002,07:00,0.6,R,mgm-3,36,R,ugm-3 (GRAV EQ),100,R,ugm-3,65,R,ugm-3,218,R,ugm-3,2,R,ugm-3,3,R,ugm-3
05-01-2002,08:00,0.6,R,mgm-3,39,R,ugm-3 (GRAV EQ),284,R,ugm-3,73,R,ugm-3,506,R,ugm-3,2,R,ugm-3,5,R,ugm-3
05-01-2002,09:00,0.7,R,mgm-3,40,R,ugm-3 (GRAV EQ),261,R,ugm-3,71,R,ugm-3,470,R,ugm-3,4,R,ugm-3,5,R,ugm-3
05-01-2002,10:00,0.8,R,mgm-3,40,R,ugm-3 (GRAV EQ),360,R,ugm-3,92,R,ugm-3,642,R,ugm-3,2,R,ugm-3,8,R,ugm-3
05-01-2002,11:00,1.6,R,mgm-3,44,R,ugm-3 (GRAV EQ),384,R,ugm-3,105,R,ugm-3,691,R,ugm-3,2,R,ugm-3,8,R,ugm-3
05-01-2002,12:00,0.9,R,mgm-3,33,R,ugm-3 (GRAV EQ),213,R,ugm-3,90,R,ugm-3,414,R,ugm-3,4,R,ugm-3,5,R,ugm-3
05-01-2002,13:00,0.8,R,mgm-3,27,R,ugm-3 (GRAV EQ),110,R,ugm-3,53,R,ugm-3,222,R,ugm-3,12,R,ugm-3,5,R,ugm-3
05-01-2002,14:00,0.7,R,mgm-3,29,R,ugm-3 (GRAV EQ),29,R,ugm-3,57,R,ugm-3,101,R,ugm-3,14,R,ugm-3,3,R,ugm-3
05-01-2002,15:00,0.6,R,mgm-3,25,R,ugm-3 (GRAV EQ),16,R,ugm-3,46,R,ugm-3,71,R,ugm-3,18,R,ugm-3,3,R,ugm-3
05-01-2002,16:00,0.6,R,mgm-3,20,R,ugm-3 (GRAV EQ),19,R,ugm-3,48,R,ugm-3,76,R,ugm-3,22,R,ugm-3,3,R,ugm-3
05-01-2002,17:00,0.7,R,mgm-3,18,R,ugm-3 (GRAV EQ),39,R,ugm-3,57,R,ugm-3,117,R,ugm-3,14,R,ugm-3,3,R,ugm-3
05-01-2002,18:00,1.0,R,mgm-3,23,R,ugm-3 (GRAV EQ),70,R,ugm-3,61,R,ugm-3,168,R,ugm-3,10,R,ugm-3,3,R,ugm-3
05-01-2002,19:00,0.8,R,mgm-3,25,R,ugm-3 (GRAV EQ),85,R,ugm-3,67,R,ugm-3,197,R,ugm-3,4,R,ugm-3,3,R,ugm-3
05-01-2002,20:00,0.8,R,mgm-3,29,R,ugm-3 (GRAV EQ),136,R,ugm-3,65,R,ugm-3,273,R,ugm-3,2,R,ugm-3,5,R,ugm-3
05-01-2002,21:00,0.9,R,mgm-3,40,R,ugm-3 (GRAV EQ),200,R,ugm-3,71,R,ugm-3,376,R,ugm-3,2,R,ugm-3,5,R,ugm-3
05-01-2002,22:00,0.7,R,mgm-3,38,R,ugm-3 (GRAV EQ),155,R,ugm-3,63,R,ugm-3,300,R,ugm-3,2,R,ugm-3,3,R,ugm-3
05-01-2002,23:00,0.9,R,mgm-3,40,R,ugm-3 (GRAV EQ),166,R,ugm-3,67,R,ugm-3,321,R,ugm-3,2,R,ugm-3,3,R,ugm-3
05-01-2002,24:00,0.9,R,mgm-3,36,R,ugm-3 (GRAV EQ),158,R,ugm-3,69,R,ugm-3,309,R,ugm-3,2,R,ugm-3,3,R,ugm-3
06-01-2002,01:00,1.3,R,mgm-3,35,R,ugm-3 (GRAV EQ),178,R,ugm-3,61,R,ugm-3,332,R,ugm-3,2,R,ugm-3,5,R,ugm-3
06-01-2002,02:00,1.0,R,mgm-3,46,R,ugm-3 (GRAV EQ),159,R,ugm-3,67,R,ugm-3,309,R,ugm-3,2,R,ugm-3,3,R,ugm-3
06-01-2002,03:00,0.8,R,mgm-3,34,R,ugm-3 (GRAV EQ),100,R,ugm-3,59,R,ugm-3,212,R,ugm-3,4,R,ugm-3,5,R,ugm-3
06-01-2002,04:00,0.6,R,mgm-3,23,R,ugm-3 (GRAV EQ),19,R,ugm-3,50,R,ugm-3,78,R,ugm-3,8,R,ugm-3,5,R,ugm-3
06-01-2002,05:00,0.3,R,mgm-3,17,R,ugm-3 (GRAV EQ),6,R,ugm-3,36,R,ugm-3,46,R,ugm-3,24,R,ugm-3,3,R,ugm-3
06-01-2002,06:00,0.2,R,mgm-3,16,R,ugm-3 (GRAV EQ),5,R,ugm-3,23,R,ugm-3,31,R,ugm-3,32,R,ugm-3,3,R,ugm-3
06-01-2002,07:00,0.2,R,mgm-3,16,R,ugm-3 (GRAV EQ),6,R,ugm-3,31,R,ugm-3,40,R,ugm-3,24,R,ugm-3,3,R,ugm-3
06-01-2002,08:00,0.3,R,mgm-3,23,R,ugm-3 (GRAV EQ),83,R,ugm-3,53,R,ugm-3,180,R,ugm-3,6,R,ugm-3,3,R,ugm-3
06-01-2002,09:00,0.5,R,mgm-3,36,R,ugm-3 (GRAV EQ),74,R,ugm-3,65,R,ugm-3,178,R,ugm-3,2,R,ugm-3,3,R,ugm-3
06-01-2002,10:00,0.5,R,mgm-3,31,R,ugm-3 (GRAV EQ),46,R,ugm-3,55,R,ugm-3,126,R,ugm-3,6,R,ugm-3,5,R,ugm-3
06-01-2002,11:00,0.6,R,mgm-3,23,R,ugm-3 (GRAV EQ),70,R,ugm-3,63,R,ugm-3,170,R,ugm-3,14,R,ugm-3,3,R,ugm-3
06-01-2002,12:00,0.9,R,mgm-3,18,R,ugm-3 (GRAV EQ),84,R,ugm-3,65,R,ugm-3,193,R,ugm-3,16,R,ugm-3,3,R,ugm-3
06-01-2002,13:00,0.9,R,mgm-3,21,R,ugm-3 (GRAV EQ),109,R,ugm-3,52,R,ugm-3,218,R,ugm-3,20,R,ugm-3,3,R,ugm-3
06-01-2002,14:00,1.2,R,mgm-3,26,R,ugm-3 (GRAV EQ),86,R,ugm-3,42,R,ugm-3,174,R,ugm-3,20,R,ugm-3,3,R,ugm-3
06-01-2002,15:00,0.9,R,mgm-3,23,R,ugm-3 (GRAV EQ),58,R,ugm-3,44,R,ugm-3,132,R,ugm-3,22,R,ugm-3,3,R,ugm-3
06-01-2002,16:00,0.6,R,mgm-3,25,R,ugm-3 (GRAV EQ),39,R,ugm-3,34,R,ugm-3,94,R,ugm-3,26,R,ugm-3,3,R,ugm-3
06-01-2002,17:00,0.5,R,mgm-3,30,R,ugm-3 (GRAV EQ),24,R,ugm-3,36,R,ugm-3,73,R,ugm-3,28,R,ugm-3,3,R,ugm-3
06-01-2002,18:00,1.5,R,mgm-3,38,R,ugm-3 (GRAV EQ),59,R,ugm-3,57,R,ugm-3,147,R,ugm-3,12,R,ugm-3,5,R,ugm-3
06-01-2002,19:00,0.6,R,mgm-3,33,R,ugm-3 (GRAV EQ),25,R,ugm-3,57,R,ugm-3,96,R,ugm-3,14,R,ugm-3,5,R,ugm-3
06-01-2002,20:00,0.2,R,mgm-3,33,R,ugm-3 (GRAV EQ),13,R,ugm-3,50,R,ugm-3,69,R,ugm-3,12,R,ugm-3,5,R,ugm-3
06-01-2002,21:00,0.3,R,mgm-3,42,R,ugm-3 (GRAV EQ),23,R,ugm-3,61,R,ugm-3,96,R,ugm-3,6,R,ugm-3,5,R,ugm-3
06-01-2002,22:00,0.3,R,mgm-3,38,R,ugm-3 (GRAV EQ),34,R,ugm-3,59,R,ugm-3,111,R,ugm-3,6,R,ugm-3,5,R,ugm-3
06-01-2002,23:00,0.7,R,mgm-3,35,R,ugm-3 (GRAV EQ),55,R,ugm-3,69,R,ugm-3,153,R,ugm-3,4,R,ugm-3,5,R,ugm-3
06-01-2002,24:00,0.7,R,mgm-3,36,R,ugm-3 (GRAV EQ),58,R,ugm-3,69,R,ugm-3,157,R,ugm-3,2,R,ugm-3,5,R,ugm-3
07-01-2002,01:00,0.5,R,mgm-3,33,R,ugm-3 (GRAV EQ),26,R,ugm-3,57,R,ugm-3,97,R,ugm-3,2,R,ugm-3,8,R,ugm-3
07-01-2002,02:00,0.2,R,mgm-3,38,R,ugm-3 (GRAV EQ),25,R,ugm-3,55,R,ugm-3,94,R,ugm-3,2,R,ugm-3,5,R,ugm-3
07-01-2002,03:00,0.3,R,mgm-3,42,R,ugm-3 (GRAV EQ),34,R,ugm-3,55,R,ugm-3,107,R,ugm-3,2,R,ugm-3,3,R,ugm-3
07-01-2002,04:00,0.3,R,mgm-3,39,R,ugm-3 (GRAV EQ),48,R,ugm-3,57,R,ugm-3,130,R,ugm-3,2,R,ugm-3,5,R,ugm-3
07-01-2002,05:00,0.3,R,mgm-3,42,R,ugm-3 (GRAV EQ),24,R,ugm-3,52,R,ugm-3,88,R,ugm-3,4,R,ugm-3,3,R,ugm-3
07-01-2002,06:00,0.3,R,mgm-3,35,R,ugm-3 (GRAV EQ),38,R,ugm-3,48,R,ugm-3,105,R,ugm-3,4,R,ugm-3,3,R,ugm-3
07-01-2002,07:00,0.6,R,mgm-3,42,R,ugm-3 (GRAV EQ),108,R,ugm-3,61,R,ugm-3,225,R,ugm-3,2,R,ugm-3,5,R,ugm-3
07-01-2002,08:00,0.9,R,mgm-3,51,R,ugm-3 (GRAV EQ),293,R,ugm-3,69,R,ugm-3,516,R,ugm-3,2,R,ugm-3,5,R,ugm-3
07-01-2002,09:00,1.0,R,mgm-3,52,R,ugm-3 (GRAV EQ),316,R,ugm-3,88,R,ugm-3,571,R,ugm-3,2,R,ugm-3,5,R,ugm-3
07-01-2002,10:00,0.9,R,mgm-3,49,R,ugm-3 (GRAV EQ),241,R,ugm-3,76,R,ugm-3,445,R,ugm-3,2,R,ugm-3,8,R,ugm-3
07-01-2002,11:00,0.7,R,mgm-3,38,R,ugm-3 (GRAV EQ),126,R,ugm-3,78,R,ugm-3,271,R,ugm-3,4,R,ugm-3,5,R,ugm-3
07-01-2002,12:00,1.4,R,mgm-3,53,R,ugm-3 (GRAV EQ),325,R,ugm-3,96,R,ugm-3,592,R,ugm-3,4,R,ugm-3,8,R,ugm-3
07-01-2002,13:00,1.5,R,mgm-3,56,R,ugm-3 (GRAV EQ),328,R,ugm-3,86,R,ugm-3,586,R,ugm-3,4,R,ugm-3,8,R,ugm-3
07-01-2002,14:00,1.5,R,mgm-3,59,R,ugm-3 (GRAV EQ),298,R,ugm-3,86,R,ugm-3,541,R,ugm-3,4,R,ugm-3,5,R,ugm-3
07-01-2002,15:00,1.5,R,mgm-3,51,R,ugm-3 (GRAV EQ),308,R,ugm-3,61,R,ugm-3,531,R,ugm-3,2,R,ugm-3,5,R,ugm-3
07-01-2002,16:00,1.4,R,mgm-3,49,R,ugm-3 (GRAV EQ),271,R,ugm-3,86,R,ugm-3,500,R,ugm-3,4,R,ugm-3,5,R,ugm-3
07-01-2002,17:00,1.7,R,mgm-3,42,R,ugm-3 (GRAV EQ),271,R,ugm-3,92,R,ugm-3,506,R,ugm-3,4,R,ugm-3,5,R,ugm-3
07-01-2002,18:00,2.0,R,mgm-3,30,R,ugm-3 (GRAV EQ),233,R,ugm-3,84,R,ugm-3,439,R,ugm-3,4,R,ugm-3,5,R,ugm-3
07-01-2002,19:00,1.2,R,mgm-3,39,R,ugm-3 (GRAV EQ),173,R,ugm-3,73,R,ugm-3,336,R,ugm-3,4,R,ugm-3,5,R,ugm-3
07-01-2002,20:00,0.7,R,mgm-3,35,R,ugm-3 (GRAV EQ),165,R,ugm-3,90,R,ugm-3,342,R,ugm-3,2,R,ugm-3,8,R,ugm-3
07-01-2002,21:00,0.6,R,mgm-3,31,R,ugm-3 (GRAV EQ),98,R,ugm-3,71,R,ugm-3,220,R,ugm-3,4,R,ugm-3,5,R,ugm-3
07-01-2002,22:00,0.5,R,mgm-3,26,R,ugm-3 (GRAV EQ),118,R,ugm-3,65,R,ugm-3,244,R,ugm-3,6,R,ugm-3,5,R,ugm-3
07-01-2002,23:00,0.3,R,mgm-3,25,R,ugm-3 (GRAV EQ),134,R,ugm-3,76,R,ugm-3,281,R,ugm-3,4,R,ugm-3,5,R,ugm-3
07-01-2002,24:00,0.2,R,mgm-3,26,R,ugm-3 (GRAV EQ),103,R,ugm-3,57,R,ugm-3,214,R,ugm-3,6,R,ugm-3,5,R,ugm-3
08-01-2002,01:00,0.2,R,mgm-3,18,R,ugm-3 (GRAV EQ),19,R,ugm-3,50,R,ugm-3,78,R,ugm-3,10,R,ugm-3,5,R,ugm-3
08-01-2002,02:00,0.2,R,mgm-3,17,R,ugm-3 (GRAV EQ),6,R,ugm-3,48,R,ugm-3,57,R,ugm-3,12,R,ugm-3,5,R,ugm-3
08-01-2002,03:00,0.2,R,mgm-3,21,R,ugm-3 (GRAV EQ),11,R,ugm-3,52,R,ugm-3,69,R,ugm-3,10,R,ugm-3,5,R,ugm-3
08-01-2002,04:00,0.1,R,mgm-3,16,R,ugm-3 (GRAV EQ),5,R,ugm-3,36,R,ugm-3,44,R,ugm-3,20,R,ugm-3,8,R,ugm-3
08-01-2002,05:00,0.1,R,mgm-3,31,R,ugm-3 (GRAV EQ),6,R,ugm-3,34,R,ugm-3,44,R,ugm-3,22,R,ugm-3,8,R,ugm-3
08-01-2002,06:00,0.2,R,mgm-3,55,R,ugm-3 (GRAV EQ),30,R,ugm-3,52,R,ugm-3,97,R,ugm-3,12,R,ugm-3,8,R,ugm-3
08-01-2002,07:00,0.2,R,mgm-3,52,R,ugm-3 (GRAV EQ),43,R,ugm-3,55,R,ugm-3,120,R,ugm-3,8,R,ugm-3,13,R,ugm-3
08-01-2002,08:00,0.9,R,mgm-3,92,R,ugm-3 (GRAV EQ),223,R,ugm-3,90,R,ugm-3,430,R,ugm-3,2,R,ugm-3,11,R,ugm-3
08-01-2002,09:00,0.9,R,mgm-3,77,R,ugm-3 (GRAV EQ),230,R,ugm-3,88,R,ugm-3,439,R,ugm-3,2,R,ugm-3,11,R,ugm-3
08-01-2002,10:00,0.6,R,mgm-3,53,R,ugm-3 (GRAV EQ),80,R,ugm-3,74,R,ugm-3,197,R,ugm-3,2,R,ugm-3,13,R,ugm-3
08-01-2002,11:00,0.3,R,mgm-3,46,R,ugm-3 (GRAV EQ),64,R,ugm-3,67,R,ugm-3,164,R,ugm-3,2,R,ugm-3,11,R,ugm-3
08-01-2002,12:00,0.5,R,mgm-3,47,R,ugm-3 (GRAV EQ),83,R,ugm-3,69,R,ugm-3,195,R,ugm-3,2,R,ugm-3,8,R,ugm-3
08-01-2002,13:00,0.3,R,mgm-3,42,R,ugm-3 (GRAV EQ),60,R,ugm-3,67,R,ugm-3,159,R,ugm-3,6,R,ugm-3,8,R,ugm-3
08-01-2002,14:00,0.3,R,mgm-3,35,R,ugm-3 (GRAV EQ),44,R,ugm-3,67,R,ugm-3,134,R,ugm-3,6,R,ugm-3,11,R,ugm-3
08-01-2002,15:00,0.3,R,mgm-3,29,R,ugm-3 (GRAV EQ),44,R,ugm-3,71,R,ugm-3,138,R,ugm-3,2,R,ugm-3,13,R,ugm-3
08-01-2002,16:00,0.5,R,mgm-3,36,R,ugm-3 (GRAV EQ),65,R,ugm-3,67,R,ugm-3,166,R,ugm-3,2,R,ugm-3,11,R,ugm-3
08-01-2002,17:00,1.0,R,mgm-3,38,R,ugm-3 (GRAV EQ),115,R,ugm-3,74,R,ugm-3,250,R,ugm-3,2,R,ugm-3,8,R,ugm-3
08-01-2002,18:00,0.9,R,mgm-3,40,R,ugm-3 (GRAV EQ),65,R,ugm-3,67,R,ugm-3,166,R,ugm-3,2,R,ugm-3,5,R,ugm-3
08-01-2002,19:00,0.6,R,mgm-3,36,R,ugm-3 (GRAV EQ),44,R,ugm-3,69,R,ugm-3,136,R,ugm-3,4,R,ugm-3,11,R,ugm-3
08-01-2002,20:00,0.8,R,mgm-3,49,R,ugm-3 (GRAV EQ),110,R,ugm-3,69,R,ugm-3,237,R,ugm-3,2,R,ugm-3,11,R,ugm-3
08-01-2002,21:00,0.7,R,mgm-3,46,R,ugm-3 (GRAV EQ),130,R,ugm-3,61,R,ugm-3,260,R,ugm-3,2,R,ugm-3,5,R,ugm-3
08-01-2002,22:00,0.5,R,mgm-3,36,R,ugm-3 (GRAV EQ),88,R,ugm-3,67,R,ugm-3,201,R,ugm-3,6,R,ugm-3,5,R,ugm-3
08-01-2002,23:00,0.3,R,mgm-3,39,R,ugm-3 (GRAV EQ),85,R,ugm-3,63,R,ugm-3,193,R,ugm-3,6,R,ugm-3,5,R,ugm-3
08-01-2002,24:00,0.3,R,mgm-3,33,R,ugm-3 (GRAV EQ),53,R,ugm-3,52,R,ugm-3,132,R,ugm-3,6,R,ugm-3,5,R,ugm-3
09-01-2002,01:00,0.2,R,mgm-3,29,R,ugm-3 (GRAV EQ),14,R,ugm-3,46,R,ugm-3,67,R,ugm-3,10,R,ugm-3,3,R,ugm-3
09-01-2002,02:00,0.2,R,mgm-3,29,R,ugm-3 (GRAV EQ),10,R,ugm-3,48,R,ugm-3,63,R,ugm-3,10,R,ugm-3,3,R,ugm-3
09-01-2002,03:00,0.2,R,mgm-3,23,R,ugm-3 (GRAV EQ),6,R,ugm-3,42,R,ugm-3,52,R,ugm-3,10,R,ugm-3,5,R,ugm-3
09-01-2002,04:00,0.2,R,mgm-3,29,R,ugm-3 (GRAV EQ),6,R,ugm-3,40,R,ugm-3,50,R,ugm-3,12,R,ugm-3,5,R,ugm-3
09-01-2002,05:00,0.3,R,mgm-3,29,R,ugm-3 (GRAV EQ),18,R,ugm-3,46,R,ugm-3,73,R,ugm-3,6,R,ugm-3,5,R,ugm-3
09-01-2002,06:00,0.5,R,mgm-3,36,R,ugm-3 (GRAV EQ),66,R,ugm-3,52,R,ugm-3,153,R,ugm-3,2,R,ugm-3,8,R,ugm-3
09-01-2002,07:00,0.5,R,mgm-3,39,R,ugm-3 (GRAV EQ),100,R,ugm-3,67,R,ugm-3,220,R,ugm-3,2,R,ugm-3,8,R,ugm-3
09-01-2002,08:00,0.8,R,mgm-3,51,R,ugm-3 (GRAV EQ),263,R,ugm-3,76,R,ugm-3,478,R,ugm-3,4,R,ugm-3,8,R,ugm-3
09-01-2002,09:00,0.9,R,mgm-3,60,R,ugm-3 (GRAV EQ),273,R,ugm-3,88,R,ugm-3,504,R,ugm-3,2,R,ugm-3,8,R,ugm-3
09-01-2002,10:00,0.9,R,mgm-3,61,R,ugm-3 (GRAV EQ),229,R,ugm-3,96,R,ugm-3,445,R,ugm-3,2,R,ugm-3,5,R,ugm-3
09-01-2002,11:00,0.9,R,mgm-3,47,R,ugm-3 (GRAV EQ),293,R,ugm-3,78,R,ugm-3,525,R,ugm-3,2,R,ugm-3,8,R,ugm-3
09-01-2002,12:00,0.7,R,mgm-3,33,R,ugm-3 (GRAV EQ),113,R,ugm-3,67,R,ugm-3,239,R,ugm-3,2,R,ugm-3,5,R,ugm-3
09-01-2002,13:00,0.7,R,mgm-3,33,R,ugm-3 (GRAV EQ),103,R,ugm-3,63,R,ugm-3,220,R,ugm-3,2,R,ugm-3,8,R,ugm-3
09-01-2002,14:00,0.8,R,mgm-3,39,R,ugm-3 (GRAV EQ),133,R,ugm-3,69,R,ugm-3,271,R,ugm-3,2,R,ugm-3,8,R,ugm-3
09-01-2002,15:00,0.7,R,mgm-3,48,R,ugm-3 (GRAV EQ),111,R,ugm-3,63,R,ugm-3,233,R,ugm-3,2,R,ugm-3,8,R,ugm-3
09-01-2002,16:00,0.8,R,mgm-3,68,R,ugm-3 (GRAV EQ),129,R,ugm-3,65,R,ugm-3,262,R,ugm-3,2,R,ugm-3,5,R,ugm-3
09-01-2002,17:00,1.2,R,mgm-3,81,R,ugm-3 (GRAV EQ),129,R,ugm-3,63,R,ugm-3,260,R,ugm-3,2,R,ugm-3,5,R,ugm-3
09-01-2002,18:00,1.5,R,mgm-3,82,R,ugm-3 (GRAV EQ),154,R,ugm-3,71,R,ugm-3,306,R,ugm-3,2,R,ugm-3,5,R,ugm-3
09-01-2002,19:00,1.3,R,mgm-3,96,R,ugm-3 (GRAV EQ),131,R,ugm-3,65,R,ugm-3,265,R,ugm-3,2,R,ugm-3,5,R,ugm-3
09-01-2002,20:00,1.4,R,mgm-3,74,R,ugm-3 (GRAV EQ),108,R,ugm-3,63,R,ugm-3,227,R,ugm-3,2,R,ugm-3,3,R,ugm-3
09-01-2002,21:00,1.4,R,mgm-3,70,R,ugm-3 (GRAV EQ),109,R,ugm-3,63,R,ugm-3,229,R,ugm-3,2,R,ugm-3,5,R,ugm-3
09-01-2002,22:00,1.0,R,mgm-3,66,R,ugm-3 (GRAV EQ),93,R,ugm-3,63,R,ugm-3,204,R,ugm-3,2,R,ugm-3,5,R,ugm-3
09-01-2002,23:00,0.9,R,mgm-3,64,R,ugm-3 (GRAV EQ),88,R,ugm-3,59,R,ugm-3,193,R,ugm-3,2,R,ugm-3,5,R,ugm-3
09-01-2002,24:00,0.8,R,mgm-3,62,R,ugm-3 (GRAV EQ),61,R,ugm-3,55,R,ugm-3,149,R,ugm-3,2,R,ugm-3,5,R,ugm-3
10-01-2002,01:00,0.8,R,mgm-3,55,R,ugm-3 (GRAV EQ),78,R,ugm-3,55,R,ugm-3,174,R,ugm-3,2,R,ugm-3,5,R,ugm-3
10-01-2002,02:00,0.7,R,mgm-3,52,R,ugm-3 (GRAV EQ),73,R,ugm-3,57,R,ugm-3,168,R,ugm-3,2,R,ugm-3,3,R,ugm-3
10-01-2002,03:00,0.6,R,mgm-3,44,R,ugm-3 (GRAV EQ),49,R,ugm-3,53,R,ugm-3,128,R,ugm-3,2,R,ugm-3,3,R,ugm-3
10-01-2002,04:00,0.6,R,mgm-3,52,R,ugm-3 (GRAV EQ),34,R,ugm-3,52,R,ugm-3,103,R,ugm-3,0,R,ugm-3,3,R,ugm-3
10-01-2002,05:00,0.6,R,mgm-3,57,R,ugm-3 (GRAV EQ),46,R,ugm-3,55,R,ugm-3,126,R,ugm-3,2,R,ugm-3,3,R,ugm-3
10-01-2002,06:00,0.6,R,mgm-3,51,R,ugm-3 (GRAV EQ),61,R,ugm-3,57,R,ugm-3,151,R,ugm-3,2,R,ugm-3,3,R,ugm-3
10-01-2002,07:00,0.7,R,mgm-3,30,R,ugm-3 (GRAV EQ),84,R,ugm-3,59,R,ugm-3,187,R,ugm-3,2,R,ugm-3,3,R,ugm-3
10-01-2002,08:00,0.9,R,mgm-3,33,R,ugm-3 (GRAV EQ),133,R,ugm-3,63,R,ugm-3,265,R,ugm-3,2,R,ugm-3,5,R,ugm-3
10-01-2002,09:00,1.2,R,mgm-3,38,R,ugm-3 (GRAV EQ),140,R,ugm-3,73,R,ugm-3,287,R,ugm-3,2,R,ugm-3,3,R,ugm-3
10-01-2002,10:00,0.9,R,mgm-3,49,R,ugm-3 (GRAV EQ),131,R,ugm-3,67,R,ugm-3,267,R,ugm-3,2,R,ugm-3,5,R,ugm-3